www.pogodaiklimat.ru

Погода и климат >> Архив погоды >> Украина >> Лозовая


ПОГОДА в Лозовой

  • Прогноз погоды в Лозовой
  • Монитор погоды в Лозовой

АРХИВ ПОГОДЫ в Лозовой

Время (UTC), дата Ветер
(напр.,м/с)
 
Видим.   Явления Облачность Т
(С)
Тd
(С)
f
(%)
Тe
(С)
Тes
(С)
Комфортность P
(гПа)
Po
(гПа)
Тmin
(С)
Tmax
(С)
R
(мм)
R24
(мм)
S
(см)
15 13.07 З 3 10 км 8/3 600 м
[Sc Ci]
+24.9 +7.9 34 +25 +25 комфорт 1007.0 986.8
18 13.07 З 1 10 км 6/6 600 м
[Sc]
+21.0 +10.5 51 +24 +24 комфорт 1009.0 988.5 +26.0
21 13.07 СЗ 1 10 км ясно +17.4 +10.7 65 +18 +18 1010.0 989.2
00 14.07 штиль 0 10 км ясно +15.5 +10.5 72 +15 +15 1009.0 988.1
03 14.07 штиль 0 10 км ясно +14.2 +11.2 82 +14 +15 1010.0 989.0
06 14.07 СЗ 1 10 км 8/8 600 м
[Sc]
+19.4 +11.9 62 +22 +22 комфорт 1010.0 989.4 +14.0
09 14.07 СЗ 2 10 км 8/8 600 м
[Cb calv Ac lent]
+22.9 +10.3 45 +25 +25 комфорт 1009.0 988.7
12 14.07 ЮЗ 2 10 км {ливн. осадки} 8/6 600 м
[Cu med, cong Ci fib]
+25.0 +7.1 32 +25 +25 комфорт 1008.0 987.8
15 14.07 С 3 10 км 8/6 600 м
[Cu med, cong Ci fib]
+26.0 +8.0 32 +26 +26 жарко 1008.0 987.9
18 14.07 штиль 0 10 км 3/3 600 м
[Sc]
+21.5 +10.6 50 +23 +23 комфорт 1008.0 987.6 +26.4 0.0
21 14.07 штиль 0 10 км 3/3 600 м
[Sc]
+16.8 +9.9 64 +17 +17 1009.0 988.2
00 15.07 штиль 0 10 км 3/0
[Ac trans]
+15.0 +9.6 70 +15 +15 1008.0 987.1
03 15.07 штиль 0 10 км ясно +13.6 +10.2 80 +13 +14 1008.0 987.0
06 15.07 В 2 10 км ясно +23.0 +11.7 49 +25 +34 комфорт 1008.0 987.7 +12.3
09 15.07 В 2 10 км 8/8 600 м
[Cu hum]
+25.8 +8.7 34 +26 +26 жарко 1007.0 986.9
12 15.07 В 3 10 км 9/6 600 м
[Sc Ci fib]
+27.0 +9.3 33 +27 +27 жарко 1006.0 986.0
15 15.07 В 4 10 км 9/6 600 м
[Cu med, cong Ci fib]
+27.0 +8.9 32 +27 +27 жарко 1006.0 986.0
18 15.07 Ю 5 10 км гроза без осадков 10/9 600 м
[Cb cap Ac und]
+23.2 +10.3 44 +25 +25 комфорт 1007.0 986.7 +28.6
21 15.07 З 3 10 км {гроза, ливн. осадки} 9/6 600 м
[Cb calv Ac As]
+17.6 +13.1 75 +18 +18 1007.0 986.3
00 16.07 С 1 10 км {гроза, ливн. осадки} 9/6 600 м
[Sc Ac As]
+16.8 +13.5 81 +18 +18 1007.0 986.3 0.3
03 16.07 С 1 10 км 9/6 600 м
[Sc Ci]
+16.0 +12.7 81 +17 +17 1007.0 986.2
06 16.07 Ю 3 10 км 9/8 600 м
[Sc Ac trans]
+19.6 +15.7 78 +22 +22 комфорт 1007.0 986.5 +15.9 0.3
09 16.07 ЮЗ 1 10 км 9/9 600 м
[Sc]
+21.4 +14.5 65 +24 +24 комфорт 1007.0 986.6
12 16.07 СВ 2 10 км 9/8 600 м
[Sc Ac trans]
+22.0 +12.8 56 +25 +25 комфорт 1006.0 985.7
15 16.07 С 2 10 км 9/6 600 м
[Sc Ac trans]
+21.8 +14.4 63 +25 +25 комфорт 1006.0 985.7
18 16.07 СЗ 1 10 км 9/6 600 м
[Sc Ac trans]
+19.0 +14.9 77 +21 +21 комфорт 1007.0 986.5 +22.8
21 16.07 штиль 0 10 км 8/8 600 м
[Sc]
+17.2 +14.1 82 +17 +17 1007.0 986.3
00 17.07 ЮЗ 1 10 км 9/9 600 м
[Sc]
+15.1 +12.8 86 +16 +16 1007.0 986.2
03 17.07 штиль 0 10 км 8/4 600 м
[Sc Ci fib]
+14.2 +12.9 92 +14 +14 1007.0 986.1
06 17.07 СЗ 2 10 км 8/0
[Cs]
+19.8 +14.8 73 +22 +22 комфорт 1007.0 986.5 +13.9
09 17.07 З 2 10 км 8/8 600 м
[Cb calv]
+23.7 +12.7 50 +26 +26 жарко 1006.0 985.8
12 17.07 ЮЗ 3 10 км 6/6 600 м
[Cu med, cong]
+25.1 +8.6 35 +26 +30 жарко 1006.0 985.8
15 17.07 З 3 10 км 3/3 600 м
[Cu med, cong]
+26.0 +7.5 31 +26 +28 жарко 1006.0 985.9
18 17.07 ЮЗ 1 10 км 1/1 600 м
[Sc diur, vesp]
+21.3 +10.1 49 +23 +23 комфорт 1007.0 986.6 +26.6
21 17.07 З 1 10 км ясно +19.6 +12.1 62 +22 +22 комфорт 1007.0 986.5
00 18.07 ЮЗ 1 10 км ясно +17.3 +12.4 73 +18 +18 1008.0 987.3
03 18.07 Ю 1 10 км 9/9 600 м
[Sc]
+16.4 +12.7 79 +17 +17 1009.0 988.2
06 18.07 ЮЗ 2 10 км {ливн. осадки} 6/6 600 м
[Cb cap]
+20.0 +13.2 65 +23 +26 комфорт 1009.0 988.5 +16.2 0.4
09 18.07 ЮЗ 4 10 км 8/8 600 м
[Cu med, cong]
+24.2 +12.5 48 +26 +26 жарко 1008.0 987.8
12 18.07 ЮЗ 5 10 км 4/4 600 м
[Cu med, cong]
+26.0 +8.9 34 +26 +31 жарко 1008.0 987.9
15 18.07 ЮЗ 4 10 км 3/3 1000 м
[Cu hum]
+25.0 +9.7 38 +26 +27 жарко 1009.0 988.8
18 18.07 З 2 10 км ясно +20.0 +9.8 52 +22 +22 комфорт 1011.0 990.4 +26.6
21 18.07 З 1 10 км ясно +16.9 +10.0 64 +18 +18 1013.0 992.1
00 19.07 штиль 0 10 км ясно +14.4 +9.6 73 +14 +14 1014.0 992.9
03 19.07 штиль 0 10 км ясно +14.5 +10.7 78 +14 +15 1015.0 993.9
06 19.07 ЮЗ 1 10 км ясно +20.2 +10.6 54 +23 +33 комфорт 1015.0 994.3 +13.2
09 19.07 ЮЗ 3 10 км 4/3 600 м
[Cu hum Ci fib]
+23.8 +9.4 40 +25 +35 комфорт 1015.0 994.6
12 19.07 ЮЗ 3 10 км 6/6 600 м
[Cu hum]
+26.0 +9.8 36 +27 +31 жарко 1014.0 993.8
15 19.07 З 3 10 км 6/5 600 м
[Cu med, cong Ac lent]
+25.7 +9.5 36 +26 +27 жарко 1014.0 993.7
18 19.07 З 1 10 км ясно +21.3 +11.3 53 +23 +23 комфорт 1016.0 995.4 +27.2
21 19.07 штиль 0 10 км ясно +18.0 +12.2 69 +18 +18 1017.0 996.2
00 20.07 ЮЗ 1 10 км ясно +16.4 +12.4 77 +17 +17 1018.0 997.0
03 20.07 ЮЗ 1 10 км ясно +16.2 +11.6 74 +17 +18 1019.0 998.0
06 20.07 ЮЗ 2 10 км ясно +23.4 +13.3 53 +27 +35 душно 1019.0 998.5 +15.9
09 20.07 ЮЗ 2 10 км 6/6 600 м
[Cu hum]
+25.2 +12.7 46 +27 +34 жарко 1019.0 998.6
12 20.07 ЮЗ 3 10 км 8/8 600 м
[Cu med, cong]
+28.8 +13.0 38 +30 +30 жарко 1018.0 997.9

 

Местоположение метеостанции Лозовая (Харьковская область, Украина): широта 48.90 долгота 36.32 высота над уровнем моря 177 м.

В архиве по умолчанию представлена погода в Лозовой за последнюю неделю. Архивные данные за месяц целиком и за предыдущие месяцы, начиная с января 2011 года, Вы можете получить, выбрав интересующий диапазон дат из раскрывающегося списка и нажав кнопку "Ввод!".


*Определитесь, кто Вы:
робот инопланетянин человек

Внимание! Время в таблицах - всемирное. Для получения местного времени необходимо прибавить поправку, которая равна 2 ч.

Смотрите также архив погоды в соседних городах и на ближайших метеорологических станциях:

Погода в Александрополе (Днепропетровская область, Украина) (37 км)
Погода в Павлограде (Днепропетровская область, Украина) (55 км)
Погода в Изюме (Харьковская область, Украина) (78 км)
Погода в Губинихе (Днепропетровская область, Украина) (79 км)
Погода в Комсомольском (Донецкая область, Украина) (79 км)
Погода в Синельниково (Днепропетровская область, Украина) (82 км)
Погода в Краснограде (Харьковская область, Украина) (83 км)
Погода в Чаплино (Днепропетровская область, Украина) (86 км)
Погода в Днепре (Днепропетровская область, Украина) (104 км)
Погода в Харькове (Харьковская область, Украина) (120 км)

Пояснения к столбцам:

Ветер - указаны скорость ветра в м/с - средняя за 10 мин, порывы в срок и между сроками (в фигурных скобках) и направление, откуда дует ветер: С - северный, СВ - северо-восточный, В - восточный, ЮВ - юго-восточный, Ю - южный, ЮЗ - юго-западный, З - западный, СЗ - северо-западный.
Видимость - горизонтальная дальность видимости в метрах или километрах. При видимости от 1 до 10 км при отсутствии осадков обычно наблюдается дымка, при ухудшении видимости до 1 км и менее - туман. В сухую погоду видимость может ухудшаться дымом, пылью или мглою.
Явления - указаны атмосферные явления, наблюдавшиеся в срок или в последний час перед сроком; фигурными скобками обозначены явления, наблюдавшиеся между сроками (за 1-3 часа до срока); квадратными скобками обозначены град или гололедные отложения с указанием их диаметра в мм.
Облачность - указаны через наклонную черту общая и нижняя облачность в баллах и высота нижней границы облаков в метрах; квадратными скобками обозначены формы облаков: Ci - перистые, Cs - перисто-слоистые, Cc - перисто-кучевые, Ac - высококучевые, As - высокослоистые, Sc - слоисто-кучевые, Ns - слоисто-дождевые, Cu - кучевые, Cb - кучево-дождевые. Подробнее классификацию облаков см. в Атласе облаков (PDF).
T - Температура воздуха - температура, измеренная на высоте 2 м над землей.
Td - Температура точки росы - температура, при понижении до которой содержащийся в воздухе водяной пар достигнет насыщения.
f - Относительная влажность воздуха - влажноcть воздуха, измеренная на высоте 2 м над землей.
Te - Эффективная температура - температура, которую ощущает одетый по сезону человек в тени. Характеристика душности погоды. При расчете учитывается влияние влажности воздуха и скорости ветра на теплоощущения человека.
Tes - Эффективная температура на солнце - температура, которую ощущает человек, с поправкой на солнечный нагрев. Характеристика знойности погоды. Зависит от высоты солнца над горизонтом, облачности и скорости ветра. Ночью, в пасмурную погоду, а также при ветре 12 м/с и более поправка равна нулю.
P - Атмосферное давление - приведенное к уровню моря атмосферное давление.
Po - Атмосферное давление - измеренное на уровне метеостанции атмосферное давление.
Tmin - Минимальная температура - минимум температуры воздуха на высоте 2 м над землей.
Tmax - Максимальная температура - максимум температуры воздуха на высоте 2 м над землей.
R - Количество осадков - Количество выпавших осадков за период времени, мм. При наведении курсора мыши на число - период времени, за который выпало указанное количество осадков.
R24 - Количество осадков - Количество выпавших осадков за 24 часа, мм.
S - Снежный покров - Высота снежного покрова, см. При наведении курсора мыши на число - состояние снежного покрова и степень покрытия местности в баллах.